Weather in Kol'skoye

Russia / Kaluga Oblast     54°09′23″N   35°21′47″E
temp.,
°C
wind,
m/s
gust,
m/s
humid.,
%
clouds,
%
prec.,
mm/h
press.,
hPa
HPBL,
m
11 april, sun
sun1100:00+3ssw49710 0.0 1026140
03:00+2ssw48770 0.0 1027130
06:00+1sw36780 0.0 102892
09:00+7ssw45610 0.0 1029265
12:00+12ssw34470 0.0 1029751
15:00+14s22410 0.0 10291232
18:00+13se22500 0.0 102932
21:00+8se33630 0.0 103125
12 april, mon
mon1200:00+6ese22681 0.0 103118
03:00+5e337176 0.0 103226
06:00+4e3777100 0.0 1031100
09:00+8e61158100 0.0 1029459
12:00+10e6857100 0.0 1028599
15:00+9e5781100 0.3 1026599
18:00+11ese3679100 0.0 1025314
21:00+8e3692100 0.0 1025111
13 april, tue
tue1300:00+8e3393100 0.0 102348
03:00+8ese3391100 0.0 102230
06:00+7sse2290100 0.0 102223
09:00+11sse4979100 0.0 1021272
12:00+13sse51171100 0.0 1020451
15:00+17sse6957100 0.0 10191644
18:00+12ssw2483100 0.4 101979
21:00+10s3588100 0.5 1020124
14 april, wed
wed1400:00+10ssw3695100 0.0 1019162
03:00+9ssw239681 0.0 101974
06:00+8ssw2294100 0.0 101925
09:00+10s2385100 0.0 1019118
12:00+9s1191100 0.4 101929
15:00+9ssw1191100 0.8 101935
18:00+9wnw119479 0.6 101819
21:00+8ssw119299 0.6 101910
15 april, thu
thu1500:00+7nnw229262 0.0 101910
03:00+7nw1192100 0.0 101810
06:00+7n229376 0.0 101816
09:00+9n249699 0.0 1018169
12:00+9n5594100 0.0 1019402
15:00+8nne6790100 0.0 1019499
18:00+5nne61188100 0.0 1019527
21:00+5nne71389100 0.0 1019715